Weather History for Bentonville, AR

Change the Weather History Date:

Monday, February 11, 2013

  Actual Average Record
Temperature  
Mean Temperature 40 °F -  
Max Temperature 51 °F 49 °F 72 °F (1951)
Min Temperature 30 °F 24 °F -8 °F (1981)
Degree Days  
Heating Degree Days 24    
Moisture  
Dew Point 24 °F    
Average Humidity 57    
Maximum Humidity 75    
Minimum Humidity 28    
Precipitation  
Precipitation 0.00 in - - ()
Sea Level Pressure  
Sea Level Pressure 30.11 in    
Wind  
Wind Speed 3 mph (NW)    
Max Wind Speed 8 mph    
Max Gust Speed -    
Visibility 10 miles    
Events      
Averages and records for this station are not official NWS values.
T = Trace of Precipitation, MM = Missing Value Source: NWS Daily Summary

Daily Weather History Graph

Daily Weather History Graph

Search for Another Location

Airport:

Trip Planner

Search our weather history database for the weather conditions in past years. The results will help you decide how hot, cold, wet, or windy it might be!

Date:

Astronomy

Feb. 11, 2013 Rise Set
Actual Time 7:08 AM CST 5:54 PM CST
Civil Twilight 6:42 AM CST 6:20 PM CST
Nautical Twilight 6:11 AM CST 6:50 PM CST
Astronomical Twilight 5:41 AM CST 7:20 PM CST
Moon 7:37 AM CST (2/11) 7:46 PM CST (2/11)
Length of Visible Light 11h 38m
Length of Day
10h 45m
Waxing Crescent, 3% of the Moon is Illuminated
Feb 11
Waxing Crescent
Feb 17
First Quarter
Feb 25
Full
Mar 4
Last Quarter
Mar 11
New

Hourly Weather History & Observations

Time (CST) Temp. Windchill Dew Point Humidity Pressure Visibility Wind Dir Wind Speed Gust Speed Precip Events Conditions
12:15 AM 39.2 °F 37.0 °F 24.8 °F 56% 30.04 in 10.0 mi NW 3.5 mph - N/A   Clear
12:35 AM 37.4 °F 34.9 °F 24.8 °F 60% 30.04 in 10.0 mi WNW 3.5 mph - N/A   Clear
12:55 AM 35.6 °F - 24.8 °F 65% 30.04 in 10.0 mi Calm Calm - N/A   Clear
1:35 AM 33.8 °F - 23.0 °F 65% 30.03 in 10.0 mi Calm Calm - N/A   Clear
1:55 AM 32.0 °F 28.7 °F 24.8 °F 75% 30.03 in 10.0 mi South 3.5 mph - N/A   Clear
2:15 AM 32.0 °F - 23.0 °F 69% 30.03 in 10.0 mi Calm Calm - N/A   Clear
2:55 AM 35.6 °F - 24.8 °F 65% 30.04 in 10.0 mi Calm Calm - N/A   Clear
3:15 AM 33.8 °F 30.8 °F 24.8 °F 70% 30.04 in 10.0 mi WSW 3.5 mph - N/A   Clear
3:35 AM 33.8 °F 30.8 °F 24.8 °F 70% 30.05 in 10.0 mi SW 3.5 mph - N/A   Clear
3:55 AM 32.0 °F 27.5 °F 23.0 °F 69% 30.06 in 10.0 mi SW 4.6 mph - N/A   Clear
4:15 AM 33.8 °F 29.6 °F 24.8 °F 70% 30.07 in 10.0 mi SW 4.6 mph - N/A   Clear
4:35 AM 32.0 °F 26.4 °F 23.0 °F 69% 30.07 in 10.0 mi SW 5.8 mph - N/A   Clear
5:15 AM 32.0 °F - 24.8 °F 75% 30.09 in 10.0 mi Calm Calm - N/A   Clear
5:55 AM 30.2 °F - 23.0 °F 75% 30.11 in 10.0 mi Calm Calm - N/A   Clear
6:35 AM 33.8 °F 27.7 °F 24.8 °F 70% 30.11 in 10.0 mi NW 6.9 mph - N/A   Clear
6:55 AM 33.8 °F 27.7 °F 24.8 °F 70% 30.11 in 10.0 mi NNW 6.9 mph - N/A   Clear
7:35 AM 33.8 °F - 23.0 °F 65% 30.13 in 10.0 mi Calm Calm - N/A   Clear
7:55 AM 33.8 °F - 24.8 °F 70% 30.15 in 10.0 mi Calm Calm - N/A   Clear
8:35 AM 35.6 °F 32.8 °F 24.8 °F 65% 30.15 in 10.0 mi NNW 3.5 mph - N/A   Clear
8:55 AM 35.6 °F 29.2 °F 24.8 °F 65% 30.16 in 10.0 mi NNW 8.1 mph - N/A   Clear
9:35 AM 37.4 °F 31.4 °F 24.8 °F 60% 30.17 in 10.0 mi North 8.1 mph - N/A   Clear
9:55 AM 39.2 °F 33.6 °F 24.8 °F 56% 30.16 in 10.0 mi North 8.1 mph - N/A   Clear
10:15 AM 39.2 °F 34.2 °F 24.8 °F 56% 30.17 in 10.0 mi North 6.9 mph - N/A   Clear
10:55 AM 42.8 °F 41.1 °F 24.8 °F 49% 30.18 in 10.0 mi NW 3.5 mph - N/A   Clear
11:15 AM 44.6 °F 43.1 °F 24.8 °F 46% 30.18 in 10.0 mi NW 3.5 mph - N/A   Clear
11:55 AM 44.6 °F - 24.8 °F 46% 30.17 in 10.0 mi Calm Calm - N/A   Clear
12:15 PM 46.4 °F 45.2 °F 24.8 °F 43% 30.16 in 10.0 mi NNW 3.5 mph - N/A   Clear
12:35 PM 46.4 °F - 23.0 °F 40% 30.16 in 10.0 mi Calm Calm - N/A   Clear
1:15 PM 48.2 °F - 24.8 °F 40% 30.14 in 10.0 mi WNW 3.5 mph - N/A   Clear
1:35 PM 50.0 °F - 24.8 °F 37% 30.13 in 10.0 mi Calm Calm - N/A   Clear
2:15 PM 51.8 °F - 24.8 °F 35% 30.12 in 10.0 mi NW 3.5 mph - N/A   Clear
2:35 PM 51.8 °F - 24.8 °F 35% 30.11 in 10.0 mi West 3.5 mph - N/A   Clear
2:55 PM 51.8 °F - 23.0 °F 33% 30.11 in 10.0 mi WNW 3.5 mph - N/A   Clear
3:35 PM 51.8 °F - 24.8 °F 35% 30.10 in 10.0 mi West 4.6 mph - N/A   Clear
3:55 PM 51.8 °F - 21.2 °F 30% 30.10 in 10.0 mi Calm Calm - N/A   Clear
4:55 PM 51.8 °F - 19.4 °F 28% 30.09 in 10.0 mi North 3.5 mph - N/A   Clear
5:15 PM 51.8 °F - 21.2 °F 30% 30.09 in 10.0 mi Calm Calm - N/A   Clear
5:55 PM 48.2 °F - 23.0 °F 37% 30.10 in 10.0 mi West 3.5 mph - N/A   Clear
6:15 PM 46.4 °F - 24.8 °F 43% 30.10 in 10.0 mi Calm Calm - N/A   Clear
6:55 PM 44.6 °F - 26.6 °F 49% 30.11 in 10.0 mi Calm Calm - N/A   Clear
7:15 PM 39.2 °F - 26.6 °F 61% 30.11 in 10.0 mi Calm Calm - N/A   Clear
7:35 PM 41.0 °F - 26.6 °F 57% 30.11 in 10.0 mi Calm Calm - N/A   Clear
8:15 PM 37.4 °F - 23.0 °F 56% 30.12 in 10.0 mi Calm Calm - N/A   Clear
8:35 PM 37.4 °F - 21.2 °F 52% 30.12 in 10.0 mi Calm Calm - N/A   Clear
8:55 PM 37.4 °F - 23.0 °F 56% 30.13 in 10.0 mi Calm Calm - N/A   Clear
9:16 PM 37.4 °F - 24.8 °F 60% 30.12 in 10.0 mi Calm Calm - N/A   Clear
9:35 PM 35.6 °F - 28.4 °F 75% 30.12 in 10.0 mi Calm Calm - N/A   Clear
9:55 PM 33.8 °F - 26.6 °F 75% 30.12 in 10.0 mi Calm Calm - N/A   Clear
10:35 PM 35.6 °F - 24.8 °F 65% 30.13 in 10.0 mi Calm Calm - N/A   Clear
10:55 PM 37.4 °F 34.9 °F 26.6 °F 65% 30.12 in 10.0 mi NNE 3.5 mph - N/A   Clear
11:15 PM 35.6 °F - 24.8 °F 65% 30.12 in 10.0 mi Calm Calm - N/A   Clear
11:36 PM 35.6 °F - 28.4 °F 75% 30.13 in 10.0 mi Calm Calm - N/A   Clear
11:55 PM 33.8 °F - 26.6 °F 75% 30.12 in 10.0 mi Calm Calm - N/A   Clear